This demonstration page uses our WeatherBlox Daily Observations layout. Learn more.

Left ArrowRight Arrow

38.89511, -77.03637

Hourly Observations for May 29, 2017

Temp ( °F °C ) Dew Point ( °F °C ) Humidity (%) Winds ( mph kmh ) Pressure ( in mb ) Visibility ( mi km ) Precip ( " mm )
12:18 am 00:18 Cloudy 65 18.3 64 17.8 97 97 ENE 7 11 29.83 1010 10 16 0.00 0.00
12:52 am 00:52 Cloudy with Light Rain 65 18.3 64 17.8 97 97 ENE 8 13 29.81 1010 10 16 0.00 0.03
1:52 am 01:52 Cloudy with Light Rain 65 18.3 64 17.8 97 97 ENE 5 7 29.81 1010 10 16 0.00 0.03
2:52 am 02:52 Cloudy with Light Rain 65 18.3 64 17.8 97 97 Calm 29.81 1010 10 16 0.00 0.03
3:52 am 03:52 Cloudy with Mist and Fog 65 18.3 64 17.8 97 97 NE 3 6 29.81 1009 5 8 0.00 0.03
4:48 am 04:48 Cloudy with Mist and Fog 64 18 64 18 100 100 ENE 5 7 29.80 1009 5 8 0.00 0.00
4:52 am 04:52 Cloudy with Mist and Fog 64 17.8 64 17.8 100 100 NE 5 7 29.80 1009 5 8 0.00 0.00
5:52 am 05:52 Cloudy with Mist and Fog 64 17.8 64 17.8 100 100 ENE 3 6 29.82 1010 3 5 0.00 0.00
6:16 am 06:16 Cloudy with Mist and Fog 64 17.8 64 17.8 100 100 NE 6 9 29.83 1010 3 4 0.00 0.00
6:52 am 06:52 Cloudy with Drizzle 64 17.8 64 17.8 100 100 ENE 6 9 29.84 1010 2 3 0.00 0.03
7:10 am 07:10 Cloudy with Drizzle 64 17.8 64 17.8 100 100 ENE 5 7 29.83 1010 2 3 0.00 0.03
7:27 am 07:27 Cloudy with Drizzle 64 17.8 64 17.8 100 100 ENE 6 9 29.85 1011 2 3 0.00 0.03
7:44 am 07:44 Cloudy with Mist and Fog 64 17.8 64 17.8 100 100 NE 5 7 29.85 1011 3 5 0.00 0.03
7:52 am 07:52 Cloudy with Mist and Fog 65 18.3 64 17.8 97 97 NE 5 7 29.85 1011 5 8 0.00 0.03
8:08 am 08:08 Cloudy with Mist and Fog 65 18.3 64 17.8 97 97 NE 3 6 29.85 1011 6 10 0.00 0.00
8:52 am 08:52 Cloudy with Mist and Fog 66 18.9 64 17.8 93 93 Calm 29.88 1012 5 8 0.00 0.00
9:04 am 09:04 Cloudy with Mist and Fog 66 18.9 64 17.8 93 93 E 3 6 29.88 1012 3 5 0.00 0.00
9:32 am 09:32 Cloudy 66 18.9 65 18.3 96 96 Calm 29.88 1012 8 13 0.00 0.00
9:52 am 09:52 Cloudy 67 19.4 65 18.3 93 93 Calm 29.90 1012 7 11 0.00 0.00
10:23 am 10:23 Cloudy 68 20 65 18.3 90 90 Calm 29.91 1013 9 14 0.00 0.00
10:49 am 10:49 Mostly Cloudy 70 21 66 19 88 88 SE 5 7 29.88 1012 9 14 0.00 0.00
10:52 am 10:52 Mostly Cloudy 70 21.1 66 18.9 87 87 SE 5 7 29.89 1012 9 14 0.00 0.00
11:52 am 11:52 Mostly Cloudy 74 23.3 67 19.4 79 79 SE 5 7 29.90 1013 10 16 0.00 0.00
12:02 pm 12:02 Mostly Cloudy 74 23.3 68 20 82 82 SSE 3 6 29.91 1013 10 16 0.00 0.00
12:52 pm 12:52 Mostly Cloudy 78 25.6 67 19.4 69 69 ESE 3 6 29.91 1013 10 16 0.00 0.00
1:52 pm 13:52 Mostly Cloudy 79 26.1 67 19.4 67 67 SE 6 9 29.92 1013 10 16 0.00 0.00
2:52 pm 14:52 Mostly Cloudy 81 27.2 65 18.3 58 58 VRB 7 11 29.92 1013 10 16 0.00 0.00
3:52 pm 15:52 Mostly Cloudy 84 28.9 52 11.1 33 33 NW 15 24 29.92 1013 10 16 0.00 0.00
4:52 pm 16:52 Mostly Cloudy 83 28.3 53 11.7 36 36 NW 14 22 29.94 1014 10 16 0.00 0.00
5:52 pm 17:52 Mostly Cloudy 82 27.8 53 11.7 37 37 WNW 9 15 29.95 1014 10 16 0.00 0.00
6:52 pm 18:52 Mostly Cloudy 81 27.2 55 12.8 41 41 NW 7 11 29.96 1014 10 16 0.00 0.00
7:11 pm 19:11 Mostly Cloudy with Nearby Thunderstorms 80 26.7 57 13.9 45 45 N 7 11 29.94 1014 10 16 0.00 0.00
7:52 pm 19:52 Mostly Cloudy with Nearby Thunderstorms 78 25.6 58 14.4 50 50 N 6 9 29.96 1015 10 16 0.00 0.00
8:12 pm 20:12 Mostly Cloudy 77 25 58 14.4 52 52 NNE 5 7 29.97 1015 10 16 0.00 0.00
8:52 pm 20:52 Mostly Cloudy 74 23.3 67 19.4 79 79 ESE 12 19 29.97 1015 10 16 0.00 0.00
9:52 pm 21:52 Mostly Cloudy 72 22.2 67 19.4 84 84 VRB 5 7 30.01 1016 10 16 0.00 0.00
10:52 pm 22:52 Cloudy 71 21.7 67 19.4 87 87 ESE 7 11 30.03 1017 10 16 0.00 0.00
11:52 pm 23:52 Cloudy 70 21.1 67 19.4 90 90 VRB 6 9 30.02 1017 10 16 0.00 0.00

Powered by AerisWeather